Tracking 29528 objects as of 13-Sep-2024
HD Live streaming from Space Station
objects crossing your sky now

TITAN 3C TRANSTAGE DEB

Track TITAN 3C TRANSTAGE DEB now!
10-day predictions


NORAD ID: 3978
Int'l Code: 1965-082SE
Perigee: 648.2 km
Apogee: 698.6 km
Inclination: 32.6 °
Period: 98.1 minutes
Semi major axis: 7044 km
RCS: 0.0084 m2 (small)
Launch date: October 15, 1965
Source: United States (US)
Launch site: AIR FORCE EASTERN TEST RANGE (AFETR)

Note: This is SATELLITE DEBRIS
Your satellite tracking list
Your tracking list is empty




NASA's NSSDC Master Catalog

Two Line Element Set (TLE):
1 03978U 65082SE  24256.00763757  .00003668  00000-0  61253-3 0  9995
2 03978  32.5644 141.7816 0035796 293.0352  66.6530 14.68371759352226
Source of the keplerian elements: AFSPC